Weather History for Saint Paul Island, AK

Change the Weather History Date:

Sunday, July 21, 2013

  Actual Average Record
Temperature  
Mean Temperature 51 °F 48 °F  
Max Temperature 57 °F 51 °F 59 °F (1993)
Min Temperature 45 °F 44 °F 36 °F (1965)
Degree Days  
Heating Degree Days 14 17  
Month to date heating degree days 415 383  
Since 1 June heating degree days 1125 1062  
Since 1 July heating degree days 415 383  
Cooling Degree Days 0    
Month to date cooling degree days 0  
Year to date cooling degree days 0  
Since 1 June cooling degree days 0  
Moisture  
Dew Point 49 °F    
Average Humidity 98    
Maximum Humidity 100    
Minimum Humidity 88    
Precipitation  
Precipitation T in 0.07 in 1.06 in (1963)
Month to date precipitation 1.38 1.15  
Year to date precipitation 10.11 8.66  
Snow  
Snow 0.00 in 0.00 in 0.00 in (2014)
Month to date snowfall 0.0 0.0  
Since 1 June snowfall 0.0 0.0  
Since 1 July snowfall 0.0 0.0  
Snow Depth 0.00 in    
Sea Level Pressure  
Sea Level Pressure 30.33 in    
Wind  
Wind Speed 9 mph (WSW)    
Max Wind Speed 15 mph    
Max Gust Speed 17 mph    
Visibility 3 miles    
Events Fog    
T = Trace of Precipitation, MM = Missing Value Source: NWS Daily Summary

Daily Weather History Graph

Daily Weather History Graph

Search for Another Location

Airport:

Trip Planner

Search our weather history database for the weather conditions in past years. The results will help you decide how hot, cold, wet, or windy it might be!

Date:

Astronomy

Jul. 21, 2013 Rise Set
Actual Time 6:58 AM AKDT 11:54 PM AKDT
Civil Twilight 6:02 AM AKDT 12:50 AM AKDT
Nautical Twilight 4:07 AM AKDT 2:39 AM AKDT
Astronomical Twilight Sun does not rise Sun does not rise
Moon 10:49 PM AKDT (7/21) 6:07 AM AKDT (7/21)
Length of Visible Light 18h 48m
Length of Day
16h 55m
Waxing Gibbous, 99% of the Moon is Illuminated
Jul 21
Waxing Gibbous
Jul 22
Full
Jul 29
Last Quarter
Aug 6
New
Aug 14
First Quarter

Hourly Weather History & Observations

Time (AKDT) Temp. Windchill Dew Point Humidity Pressure Visibility Wind Dir Wind Speed Gust Speed Precip Events Conditions
12:29 AM 46.4 °F 43.5 °F 46.4 °F 100% 30.30 in 0.8 mi SW 5.8 mph - N/A   Mist
12:53 AM 46.9 °F - 46.9 °F 100% 30.30 in 0.8 mi SW 6.9 mph - N/A   Mist
1:00 AM 46.4 °F 42.9 °F 46.4 °F 100% 30.30 in 0.5 mi SW 6.9 mph - N/A Fog Fog
1:53 AM 45.0 °F 43.5 °F 45.0 °F 100% 30.31 in 0.8 mi SW 3.5 mph - N/A   Mist
2:18 AM 46.4 °F 44.3 °F 46.4 °F 100% 30.31 in 1.0 mi WSW 4.6 mph - N/A   Mist
2:53 AM 46.0 °F 43.1 °F 46.0 °F 100% 30.31 in 0.8 mi SW 5.8 mph - N/A   Mist
3:26 AM 46.4 °F 42.9 °F 46.4 °F 100% 30.31 in 1.0 mi SW 6.9 mph - N/A   Mist
3:53 AM 46.9 °F - 46.9 °F 100% 30.31 in 1.0 mi SW 5.8 mph - N/A   Mist
4:24 AM 46.4 °F 43.5 °F 46.4 °F 100% 30.30 in 2.0 mi WSW 5.8 mph - N/A   Overcast
4:53 AM 46.9 °F - 46.9 °F 100% 30.30 in 1.8 mi WSW 4.6 mph - N/A   Overcast
5:14 AM 46.4 °F 44.3 °F 46.4 °F 100% 30.31 in 0.8 mi SW 4.6 mph - N/A   Mist
5:36 AM 46.4 °F 42.4 °F 46.4 °F 100% 30.31 in 0.5 mi WSW 8.1 mph - N/A Fog Fog
5:45 AM 46.4 °F 42.4 °F 46.4 °F 100% 30.30 in 0.8 mi SW 8.1 mph - N/A   Mist
5:53 AM 46.9 °F - 46.9 °F 100% 30.30 in 0.5 mi SW 9.2 mph - N/A Fog Fog
6:09 AM 46.4 °F 42.4 °F 46.4 °F 100% 30.30 in 0.8 mi WSW 8.1 mph - N/A   Mist
6:49 AM 46.4 °F 42.9 °F 46.4 °F 100% 30.30 in 0.5 mi WSW 6.9 mph - N/A Fog Fog
6:53 AM 46.9 °F - 46.9 °F 100% 30.30 in 0.5 mi WSW 6.9 mph - N/A Fog Fog
7:48 AM 48.2 °F - 48.2 °F 100% 30.29 in 1.0 mi SW 8.1 mph - N/A   Mist
7:53 AM 48.0 °F - 48.0 °F 100% 30.30 in 1.5 mi SW 8.1 mph - N/A   Overcast
8:02 AM 48.2 °F - 48.2 °F 100% 30.30 in 2.5 mi SW 8.1 mph - N/A   Overcast
8:09 AM 48.2 °F - 48.2 °F 100% 30.30 in 3.0 mi SW 10.4 mph - N/A   Overcast
8:23 AM 48.2 °F - 48.2 °F 100% 30.29 in 2.5 mi WSW 8.1 mph - N/A   Overcast
8:42 AM 46.4 °F 41.5 °F 46.4 °F 100% 30.29 in 1.2 mi SW 10.4 mph - N/A   Overcast
8:53 AM 46.9 °F - 46.9 °F 100% 30.31 in 0.8 mi SW 10.4 mph - N/A   Overcast
9:26 AM 48.2 °F - 48.2 °F 100% 30.31 in 1.8 mi SW 11.5 mph - N/A   Overcast
9:53 AM 48.0 °F - 48.0 °F 100% 30.31 in 1.8 mi WSW 9.2 mph - N/A   Overcast
10:19 AM 48.2 °F - 48.2 °F 100% 30.31 in 2.0 mi West 6.9 mph - N/A   Overcast
10:53 AM 48.9 °F - 48.9 °F 100% 30.33 in 1.5 mi WSW 6.9 mph - N/A   Overcast
11:11 AM 50.0 °F - 50.0 °F 100% 30.33 in 3.0 mi WSW 5.8 mph - N/A   Overcast
11:30 AM 50.0 °F - 50.0 °F 100% 30.32 in 2.5 mi WSW 6.9 mph - N/A   Overcast
11:53 AM 52.0 °F - 52.0 °F 100% 30.32 in 5.0 mi WSW 6.9 mph - N/A   Overcast
12:53 PM 50.0 °F - 50.0 °F 100% 30.34 in 1.8 mi SSW 5.8 mph - N/A   Overcast
1:19 PM 51.8 °F - 51.8 °F 100% 30.33 in 3.0 mi WSW 8.1 mph - N/A   Overcast
1:53 PM 54.0 °F - 53.1 °F 97% 30.33 in 7.0 mi West 9.2 mph - N/A   Overcast
2:28 PM 51.8 °F - 51.8 °F 100% 30.35 in 1.5 mi WSW 9.2 mph - N/A   Overcast
2:39 PM 53.6 °F - 53.6 °F 100% 30.33 in 3.0 mi SW 6.9 mph - N/A   Overcast
2:53 PM 55.0 °F - 53.1 °F 93% 30.33 in 10.0 mi WSW 9.2 mph - N/A   Overcast
3:01 PM 55.4 °F - 53.6 °F 94% 30.33 in 10.0 mi WSW 10.4 mph - N/A   Overcast
3:53 PM 55.0 °F - 52.0 °F 89% 30.35 in 10.0 mi WSW 11.5 mph - N/A   Mostly Cloudy
4:15 PM 55.4 °F - 51.8 °F 88% 30.34 in 9.0 mi WSW 12.7 mph - N/A   Overcast
4:53 PM 53.1 °F - 51.1 °F 93% 30.35 in 7.0 mi West 13.8 mph - N/A   Mostly Cloudy
5:24 PM 55.4 °F - 51.8 °F 88% 30.35 in 10.0 mi WSW 11.5 mph - N/A   Overcast
5:53 PM 53.1 °F - 51.1 °F 93% 30.34 in 10.0 mi WSW 13.8 mph - N/A   Overcast
6:03 PM 53.6 °F - 51.8 °F 94% 30.34 in 9.0 mi WSW 12.7 mph - N/A   Overcast
6:53 PM 51.1 °F - 50.0 °F 96% 30.34 in 5.0 mi West 11.5 mph - 0.00 in   Overcast
7:05 PM 51.8 °F - 50.0 °F 94% 30.34 in 7.0 mi West 10.4 mph - N/A   Overcast
7:20 PM 51.8 °F - 50.0 °F 94% 30.34 in 10.0 mi West 9.2 mph - N/A   Overcast
7:53 PM 52.0 °F - 50.0 °F 93% 30.35 in 7.0 mi West 9.2 mph - N/A   Overcast
8:31 PM 51.8 °F - 50.0 °F 94% 30.34 in 10.0 mi West 8.1 mph - N/A   Overcast
8:53 PM 50.0 °F - 50.0 °F 100% 30.35 in 4.0 mi WSW 6.9 mph - N/A   Overcast
9:53 PM 48.9 °F - 48.9 °F 100% 30.35 in 3.0 mi West 5.8 mph - N/A   Overcast
10:14 PM 48.2 °F - 48.2 °F 100% 30.35 in 2.5 mi West 6.9 mph - N/A   Overcast
10:27 PM 48.2 °F - 48.2 °F 100% 30.35 in 1.2 mi West 4.6 mph - N/A   Overcast
10:43 PM 48.2 °F - 48.2 °F 100% 30.36 in 0.8 mi West 6.9 mph - N/A   Overcast
10:53 PM 48.9 °F - 48.9 °F 100% 30.37 in 1.0 mi West 8.1 mph - N/A   Overcast
11:13 PM 48.2 °F - 48.2 °F 100% 30.36 in 2.5 mi West 8.1 mph - N/A   Overcast
11:26 PM 48.2 °F - 48.2 °F 100% 30.36 in 1.5 mi West 9.2 mph - N/A   Overcast
11:41 PM 48.2 °F - 48.2 °F 100% 30.37 in 0.8 mi West 8.1 mph - N/A   Mist
11:48 PM 48.2 °F - 48.2 °F 100% 30.37 in 0.5 mi West 9.2 mph - N/A Fog Fog
11:53 PM 48.0 °F - 48.0 °F 100% 30.38 in 0.5 mi West 8.1 mph - N/A Fog Fog